Other Surface Observations
Issued by NWS Tucson, AZ

Home | Current Version | Previous Version | Text Only | Print | Product List | Glossary On
Versions: 1 2 3 4 5 6 7 8 9 10 11 12 13 14 15 16 17 18 19 20 21 22 23 24 25 26 27 28 29 30 31 32 33 34 35 36 37 38 39 40 41 42 43 44 45 46 47 48 49 50
000
SXUS55 KTWC 010415
OSOTWC

WEATHER ROUNDUP FOR SOUTHEAST ARIZONA
NATIONAL WEATHER SERVICE TUCSON AZ
915 PM MST SAT FEB 28 2015

AZZ504>506-514-010515-
LOCATION       SKY/WX    TMP DP  RH WIND       PRES   REMARKS
TUCSON         MOCLDY    62  44  51 W7        29.95R
DAVIS-MONTHAN  PTCLDY    62  44  53 W5        29.94R
CHILDRENS PARK N/A       64  45  50 NE6               PIMA CO DEQ
ALVERNON/22ND  N/A      N/A N/A N/A N/A               PIMA CO DEQ
CHERRY/GLENN   N/A      N/A N/A N/A N/A               PIMA CO DEQ
TANGERINE      N/A       61 N/A N/A NW4               PIMA CO DEQ
CONTL RANCH    N/A       63  46  54 W5                PIMA CO DEQ
GRANT/1ST      N/A       66  43  44 E4                PIMA CO DEQ
CRAYCROFT/22ND N/A      N/A N/A N/A N/A               PIMA CO DEQ
GOLFLINKS/KOLB N/A       66  43  44 W7                PIMA CO DEQ
AJO/12TH       N/A       66  43  44 SW9               PIMA CO DEQ
SAGUARO EAST   N/A      N/A N/A N/A N/A               PIMA CO DEQ
FAIRGROUNDS    N/A       62 N/A N/A W8                PIMA CO DEQ
SAGUARO        N/A       63  41  44 W5G15             *SABINO CYN
SAN CARLOS     N/A       58  43  58 W6G11             *SAN CARLOS
GREEN VALLEY   N/A       62  45  53 W9                PIMA CO DEQ
HORSE CAMP CYN N/A       51  42  72 W9G16             *ARAVAIPA CYN
RINCON MTNS    N/A       38  37  98 SW6G17            *NR MANNING CAMP
$$

AZZ509>511-010515-
LOCATION       SKY/WX    TMP DP  RH WIND       PRES   REMARKS
SAFFORD        CLOUDY    58  44  60 NW10      29.92R
STRAY HORSE    N/A       37  36  96 W12G25            *
TRAIL CABIN    N/A       43  39  87 W3                *N OF GRANVILLE
BLACK HILLS    N/A       57  44  62 N6G13             *N OF FT THOMAS
DRY LAKE       N/A       38  38  100 W6G12            *NATANES MTNS
NOON CREEK     N/A       55  39  54 SW10G26           *PINALENO MTNS
COLUMBINE      N/A       34  34  100 S12G26           *PINALENO MTNS
GUTHRIE        N/A       46  39  76 W11G22            *SW OF GUTHRIE
$$

AZZ502-503-513-010515-
LOCATION       SKY/WX    TMP DP  RH WIND       PRES   REMARKS
NOGALES        PTCLDY    58  42  55 S10       29.99R
SELLS          N/A       56  43  62 SW3G13            *
SASABE         N/A       54  43  67 CALM              *ALTAR VLY
HOPKINS        N/A       43  37  79 SW14G24           *SANTA RITA MTNS
CARR CYN       N/A       52  38  59 S8G24             *W OF HEREFORD
$$

AZZ507-508-512-010515-
LOCATION       SKY/WX    TMP DP  RH WIND       PRES   REMARKS
SIERRA VISTA   MOCLDY    56  40  55 SE3       30.01R
DOUGLAS        CLEAR     57  41  55 SW13      30.01R
EMPIRE MTNS    N/A       54  40  59 S10G20            *LAS CIENEGAS NCA
MULESHOE RANCH N/A       56  41  56 W8G21             *PRESERVE
HEADQUARTERS   N/A       54  37  53 W4G22             *CHIRICAHUA MTNS
$$

.............................NOTES.............................
THIS IS AN AUTOMATED COLLECTIVE WITH MINIMAL QUALITY CONTROL.
PIMA CO DEQ SITES HAVE NONSTANDARD WIND SENSOR HEIGHTS.
PIMA CO DEQ SITES DO NOT REPORT WIND GUSTS.
* INDICATES WIND SENSORS LOCATED AT 20 FEET INSTEAD OF 33 FEET.
..............................KEY..............................
SKY/WX - SKY CONDITION/WEATHER
TMP    - TEMPERATURE IN FAHRENHEIT
DP     - DEWPOINT IN FAHRENHEIT
RH     - RELATIVE HUMIDITY IN PERCENT
WIND   - DIRECTION AND SPEED IN MILES PER HOUR (MPH)
VRB    - VARIABLE WIND DIRECTION
PRES   - MEAN SEA LEVEL PRESSURE IN INCHES OF MERCURY
         F - FALLING PRESSURE   R - RISING PRESSURE
         S - STEADY PRESSURE
VSB    - VISIBILITY IN MILES
HX     - HEAT INDEX IN FAHRENHEIT
WCI    - WIND CHILL INDEX IN FAHRENHEIT
N/A    - NOT AVAILABLE
AFB    - AIR FORCE BASE
         DAVIS-MONTHAN IS DAVIS-MONTHAN AIR FORCE BASE
CYN    - CANYON
MTNS   - MOUNTAINS
NCA    - NATIONAL CONSERVATION AREA
NR     - NEAR
VLY    - VALLEY
CONTL  - CONTINENTAL
PIMA CO DEQ - PIMA COUNTY DEPT OF ENVIRONMENTAL QUALITY



USA.gov is the U.S. government's official web portal to all federal, state and local government web resources and services.